Regional Weather Roundup
Issued by NWS

Home | Current Version | Previous Version | Graphics & Text | Print | Product List | Glossary On
Versions: 1 2 3 4 5 6 7 8 9 10 11 12 13 14 15 16 17 18 19 20 21 22 23 24 25 26 27 28 29 30 31 32 33 34 35 36 37 38 39 40 41 42 43 44 45 46 47 48 49 50
000
ASUS45 KBOU 280407
RWRCO

WEATHER ROUNDUP FOR COLORADO
NATIONAL WEATHER SERVICE DENVER/BOULDER CO
900 PM MST THU NOV 27 2014

NOTE: "FAIR" INDICATES FEW OR NO CLOUDS BELOW 12000 FEET WITH NO
SIGNIFICANT WEATHER AND/OR OBSTRUCTIONS TO VISIBILITY.

COZ001>005-013-030-031-280500-
...NORTHWEST COLORADO...

CITY           SKY/WX    TMP DP  RH WIND       PRES   REMARKS
CRAIG          PTCLDY    31  25  78 CALM      30.26F
HAYDEN         MOCLDY    34  25  69 E12       30.26F WCI  25
MEEKER         PTCLDY    33  22  63 E5        30.28S WCI  29
MOUNT WERNER   NOT AVBL
STEAMBOAT SPGS MOCLDY    28  26  91 CALM      30.29S
WALDEN         PTCLDY    37  19  48 S13       30.27S
$$

COZ006>008-011-280500-
...WEST CENTRAL VALLEYS...

CITY           SKY/WX    TMP DP  RH WIND       PRES   REMARKS
GRAND JUNCTION PTCLDY    35  25  66 E5        30.29S WCI  31
MONTROSE       CLEAR     30  24  78 SE8       30.34S WCI  22
EAGLE          PTCLDY    34  27  75 SE6       30.35S WCI  29
RIFLE          PTCLDY    33  26  75 CALM      30.33S
DELTA          CLEAR     39  26  61 CALM      30.32S
NUCLA          CLEAR     37  19  48 E7        30.35F
$$

COZ017>023-064>068-280500-
...SOUTHWEST COLORADO...

CITY           SKY/WX    TMP DP  RH WIND       PRES   REMARKS
DURANGO        PTCLDY    30  20  66 CALM      30.37S
CORTEZ         CLEAR     26  18  71 E7        30.35F WCI  18
PAGOSA SPRINGS PTCLDY    27  19  71 CALM      30.41S
TELLURIDE      CLEAR     35  20  53 E5        30.47S WCI  31
WOLF CREEK PAS CLEAR     30  12  47 MISG      30.52F
$$

COZ009-010-012-014-032>034-037-058>063-280500-
...CENTRAL COLORADO...

CITY           SKY/WX    TMP DP  RH WIND       PRES   REMARKS
ASPEN          PTCLDY    31  22  69 CALM      30.35F
BUENA VISTA    PTCLDY    46  11  24 W12G18    30.30F
COPPER MTN     PTCLDY    32  12  43 W8        30.47R WCI  25
BERTHOUD PASS  NOT AVBL
COTTONWOOD PAS PTCLDY    45   5  19 W29G56    30.33S
GUNNISON       PTCLDY    23  16  74 CALM      30.45R
KREMMLING      MOCLDY    34  23  64 E3        30.34R
LEADVILLE      PTCLDY    34  12  40 NE14G20   30.38F WCI  25
MONARCH PASS   CLEAR     28  12  50 W40G49    30.53S WCI  11
SALIDA         PTCLDY    49  12  23 SW20      30.34S
SUNLIGHT       PTCLDY    32  21  64 CALM      30.44F
WILKERSON PASS PTCLDY    34   7  32 W22       30.32F WCI  22
$$

COZ069>075-280500-
...SAN LUIS VALLEY/SANGRE DE CRISTO MOUNTAINS...

CITY           SKY/WX    TMP DP  RH WIND       PRES   REMARKS
ALAMOSA        PTCLDY    20  11  68 E3        30.34F
LA VETA PASS   MOCLDY    37  14  38 S13G28    30.37S
SAGUACHE       PTCLDY    30  19  64 N8        30.37S WCI  23
$$

COZ035-036-038>040-280500-
...NORTHERN COLORADO FRONT RANGE...

CITY           SKY/WX    TMP DP  RH WIND       PRES   REMARKS
DENVER INTL AP PTCLDY    44  19  36 SW5       30.09F
DMNS CITY PARK   N/A     47  19  33 SE6       30.08F
AURORA         PTCLDY    54  16  22 N1        30.12S
FRONT RANGE AP PTCLDY    48  23  37 W5        30.11
ERIE MUNI ARPT PTCLDY    41  22  46 E3        30.07F
BOULDER MUN AP PTCLDY    55  19  24 E5        30.06F
CENTENNIAL     PTCLDY    47  18  31 S6        30.12F
BROOMFIELD     MOCLDY    59  14  17 NW14G33   30.10F
FORT COLLINS   PTCLDY    45  21  39 CALM      30.08S
LONGMONT       PTCLDY    61  15  16 W12       30.07F
$$

COZ041-046-047-076>085-087-088-280500-
...PIKES PEAK/PALMER DIVIDE AND SOUTHERN FOOTHILLS...

CITY           SKY/WX    TMP DP  RH WIND       PRES   REMARKS
COLO. SPRINGS  PTCLDY    53  14  21 NW8       30.18S
A. F. ACADEMY  PTCLDY    52  11  19 W10G18    30.17S
ELLICOTT       NOT AVBL
FALCON         NOT AVBL
FORT CARSON    PTCLDY    50  17  26 W6        30.16S
LIMON          PTCLDY    28  18  66 NW6       30.12F WCI  22
MONUMENT HILL  PTCLDY    37  18  44 SW9       30.18F
TRINIDAD       CLOUDY    43  23  45 SW12      30.20F
$$

COZ042>045-048>051-090-091-280500-
...NORTHEAST COLORADO...

CITY           SKY/WX    TMP DP  RH WIND       PRES   REMARKS
GREELEY ARPT   CLEAR     32  18  55 CALM      30.07S
AKRON          CLEAR     46  26  45 W15       30.05F
BURLINGTON     PTCLDY    42  25  50 W14       30.07F
WRAY           CLEAR     39  29  66 SW9       30.04R
STERLING       CLEAR     37  32  81 CALM      30.03S
HOLYOKE        CLEAR     34  28  80 W8        30.03S WCI  27
FORT MORGAN    CLEAR     40  24  51 W12       30.06F
$$

COZ086-089-092>099-280500-
...SOUTHEAST COLORADO...

CITY           SKY/WX    TMP DP  RH WIND       PRES   REMARKS
PUEBLO         PTCLDY    52  18  26 W12       30.12F
LA JUNTA       PTCLDY    45  25  45 W9        30.10S
LAMAR          MOCLDY    29  23  78 SW8       30.06F WCI  21
SPRINGFIELD      N/A     47  19  33 W7        30.11F
$$


USA.gov is the U.S. government's official web portal to all federal, state and local government web resources and services.